Theta_e
321 321 319 322 322 322 321 320 321 321 320 317 319 319 317 316 317 317 314 315 314 314 314 314 313 313 313 313 313 313 314 314 313 314 316 318 318 318 321 323 327 329 329 329 330 327 327 326 325 324 324 324 322 322 322 321 320 320 320 319 319 318 318 317 317 316 316 316 316 316 316 317 316 315 316 316 315 314 314 315 315 314 313 314 313
322 321 321 320 320 321 321 320 320 319 318 319 316 317 317 314 314 314 316 314 314 316 314 316 314 313 312 314 313 315 314 314 313 314 312 317 318 317 317 321 324 328 329 328 329 329 329 328 327 326 325 325 324 323 323 322 321 321 321 321 320 320 319 318 318 317 317 316 316 316 316 316 316 316 316 315 315 314 314 314 314 315 314 314 314
322 322 322 320 320 321 320 319 318 319 319 320 316 318 316 318 317 315 315 315 316 315 315 316 314 314 313 312 314 314 315 314 313 313 314 313 316 317 317 317 321 324 328 328 328 328 329 329 330 329 328 327 327 326 324 323 322 322 321 322 321 321 320 319 319 318 318 318 317 317 317 316 316 316 315 316 315 315 315 315 314 314 314 314 314
321 321 322 321 319 320 319 319 319 320 319 320 317 318 318 317 316 316 315 316 316 315 312 315 314 314 312 314 314 314 313 314 312 313 313 313 311 315 316 316 316 320 323 328 329 329 329 329 329 329 329 329 330 329 327 325 324 323 323 322 322 322 322 321 320 319 318 318 317 317 317 317 317 317 316 315 315 316 315 315 315 314 314 314 314
321 322 319 320 319 320 319 320 319 319 318 318 317 315 314 313 313 313 313 312 312 312 311 311 314 313 310 314 314 315 315 315 314 313 313 314 314 311 314 315 315 315 317 321 327 328 329 328 328 328 329 329 329 329 329 328 328 326 325 325 324 324 323 322 321 321 320 320 319 318 318 318 317 318 318 316 315 316 315 315 315 314 315 315 314
323 321 320 319 319 320 320 319 318 317 318 317 317 316 316 313 313 312 315 313 313 312 310 311 311 310 311 310 310 314 315 315 314 314 313 315 315 313 314 312 313 314 314 316 319 323 328 329 328 328 328 329 329 329 329 328 329 328 328 327 326 326 325 324 323 323 322 322 320 320 319 319 318 318 318 317 316 315 316 315 315 315 315 315 314
324 322 320 319 319 319 318 319 320 317 318 316 317 316 314 316 312 313 311 311 312 312 310 312 311 313 313 313 313 313 313 314 314 314 313 314 314 313 315 313 314 313 314 314 311 314 320 327 329 328 328 329 329 329 330 330 329 328 328 328 328 328 327 326 325 325 325 323 322 321 320 320 319 319 318 318 317 317 316 315 315 315 315 315 314
329 326 324 323 323 323 322 320 319 319 317 315 315 317 315 314 312 313 311 311 309 312 310 311 312 312 312 312 312 312 312 312 313 313 314 314 314 314 314 314 315 314 313 314 314 313 314 318 325 327 329 329 329 329 330 330 329 329 328 329 329 328 327 327 327 326 325 324 323 321 321 320 320 319 319 319 318 318 317 317 316 316 316 315 315
330 330 328 327 326 324 322 321 321 321 320 318 317 316 315 315 313 312 312 312 310 310 310 311 311 312 312 311 312 311 311 312 313 313 313 312 313 313 313 313 313 311 313 313 314 314 312 314 318 320 322 327 328 329 329 330 330 330 329 329 330 329 328 328 327 327 325 324 324 323 322 321 321 320 320 320 319 318 318 317 317 317 317 316 315
328 328 328 327 327 326 326 325 324 324 322 320 318 317 316 315 314 312 312 312 310 310 310 310 311 311 311 311 312 310 310 310 310 308 309 311 311 312 313 313 313 313 314 314 314 313 313 314 314 314 314 318 325 328 329 329 330 330 330 330 330 330 329 329 327 327 325 325 324 324 324 322 322 321 321 321 320 319 319 318 318 317 317 317 316
328 328 327 326 325 325 325 326 326 325 323 321 319 317 316 314 313 313 310 312 311 311 311 311 311 311 310 311 311 310 308 307 308 307 308 309 310 310 310 311 311 311 312 312 313 312 312 312 312 312 313 313 320 325 328 328 328 330 331 331 330 331 329 328 328 327 326 326 325 325 324 324 323 322 322 321 320 320 319 319 319 317 317 318 317
328 328 327 325 323 322 322 322 322 322 321 319 317 315 314 313 312 313 313 314 313 313 312 311 309 308 307 308 308 307 307 307 306 307 308 308 308 307 308 308 308 309 310 311 311 310 311 312 311 313 313 313 315 317 321 324 325 328 329 331 331 331 330 327 329 328 328 327 326 325 325 324 324 323 322 322 322 322 320 320 320 319 319 318 317
325 325 325 324 325 322 322 321 320 320 319 319 319 317 316 315 314 313 313 314 314 313 309 308 309 309 310 309 310 310 309 308 308 308 308 308 307 307 307 305 306 306 308 309 309 309 309 310 311 312 312 312 313 312 315 316 319 325 328 328 330 331 331 330 330 328 329 327 326 326 326 325 324 324 324 323 323 322 322 321 321 320 319 319 318
325 327 328 328 326 323 322 323 322 321 320 319 316 315 317 316 316 314 314 315 314 312 310 310 308 307 307 307 307 309 310 309 308 307 307 306 306 305 305 305 305 306 306 306 306 307 308 309 310 310 311 311 312 312 313 313 314 320 325 327 329 331 331 331 330 329 328 329 327 327 326 326 326 325 324 324 323 323 322 322 322 322 321 321 320
328 328 329 328 326 324 324 324 324 322 319 317 316 316 317 316 315 315 314 311 312 311 310 311 309 305 307 305 305 305 307 303 304 305 306 306 306 305 305 304 304 305 305 304 305 305 307 308 308 309 309 309 310 311 311 309 311 312 318 320 323 329 330 331 331 330 329 329 328 326 326 326 326 327 326 324 324 324 324 323 323 322 322 321 321
328 327 327 327 326 326 325 324 324 322 321 319 319 319 318 318 317 315 314 314 310 310 310 310 311 308 306 305 303 301 303 305 301 304 304 307 307 306 304 304 304 304 303 303 304 305 306 306 306 307 308 308 308 309 309 310 310 308 308 309 313 320 324 327 330 331 330 328 328 328 328 327 327 328 327 327 326 325 325 324 323 323 323 322 321
326 326 325 326 326 324 322 323 323 324 324 322 321 321 321 319 317 314 313 313 313 312 310 309 309 311 311 305 303 300 302 305 305 309 305 303 303 304 303 303 304 304 303 303 303 304 304 305 305 306 306 307 307 308 308 308 308 308 308 303 305 311 317 323 326 328 329 330 329 328 327 328 329 327 327 327 328 327 326 326 324 323 323 322 322
323 325 325 323 324 323 323 323 323 322 321 322 322 320 318 317 317 317 315 314 314 314 312 308 309 309 311 313 312 309 308 305 307 304 306 305 304 303 303 303 303 303 302 302 302 303 303 304 305 305 305 305 306 306 306 307 306 307 308 309 311 312 313 316 322 325 327 328 328 329 329 328 327 327 326 327 329 328 327 326 325 326 324 323 323
320 324 324 323 323 323 324 325 325 323 319 321 320 319 319 319 318 317 316 314 313 312 312 312 307 308 309 309 309 309 310 306 304 305 303 305 306 304 304 302 302 302 302 302 303 303 303 303 303 304 304 305 305 305 305 305 306 306 309 312 315 315 314 314 315 319 323 325 326 327 328 329 328 328 327 326 329 328 328 326 326 326 323 324 324
320 320 320 321 321 322 322 323 323 322 319 320 320 319 317 318 316 317 317 316 315 314 313 311 310 308 306 306 306 307 307 306 306 304 302 300 303 309 309 309 307 305 304 303 303 303 303 303 303 303 304 304 304 304 304 304 304 305 305 310 314 315 315 316 315 314 316 319 323 325 326 327 328 328 327 327 329 327 328 327 326 326 327 326 326
315 315 315 316 316 321 323 323 323 323 321 320 319 319 318 317 316 315 316 316 314 314 313 313 312 311 306 303 304 305 306 305 305 304 301 301 302 304 306 305 305 305 305 305 306 305 304 305 305 304 304 304 303 303 303 303 304 304 305 308 312 315 317 317 315 314 314 314 317 319 323 326 326 327 328 328 327 329 328 327 326 327 325 324 325
313 312 314 317 320 321 321 321 321 320 317 319 319 319 318 318 318 317 316 315 315 314 313 314 313 313 311 308 304 303 302 302 303 303 302 303 301 303 305 304 303 308 308 308 307 307 306 306 305 304 304 304 304 303 303 303 303 303 303 304 308 311 314 314 315 315 314 314 315 316 319 321 324 326 327 326 326 327 326 326 326 328 325 325 325
310 309 311 311 313 315 316 318 319 317 316 318 318 318 317 317 316 316 314 314 314 313 311 312 311 311 311 310 308 306 306 305 306 303 302 300 300 303 305 306 306 306 309 309 308 308 307 307 306 306 306 305 304 303 302 302 301 302 301 304 306 308 309 310 312 312 313 314 314 315 316 316 318 321 322 324 325 325 326 325 326 325 325 326 325
308 309 308 307 308 309 308 312 316 318 317 316 316 316 317 316 316 315 314 314 314 312 312 312 312 311 311 311 311 311 309 308 309 308 304 304 303 302 303 306 307 308 309 310 309 309 308 308 308 307 307 305 303 302 302 302 302 300 300 301 305 308 311 312 313 312 312 312 312 313 313 314 315 316 317 319 321 323 325 325 324 325 325 326 326
303 304 304 303 304 308 308 310 310 312 312 312 312 314 314 314 314 313 313 313 313 313 312 312 312 312 311 311 311 310 310 311 310 309 307 307 305 303 305 306 303 305 307 307 306 307 308 308 306 306 305 305 304 302 302 302 302 301 299 300 302 305 306 308 311 311 312 312 312 313 313 313 313 314 316 317 319 321 322 323 323 324 325 325 325
304 303 303 304 304 304 305 306 306 306 307 308 311 312 312 312 312 312 312 313 313 312 311 311 311 311 311 310 310 310 310 310 310 309 308 306 304 302 303 304 305 303 306 305 306 304 305 306 307 307 306 306 306 305 302 301 301 299 298 298 301 303 304 306 308 308 309 310 310 311 311 311 312 312 313 316 317 318 319 321 322 323 323 324 325
302 301 301 302 301 302 301 302 302 303 306 309 310 309 310 310 309 308 308 309 309 308 309 309 309 309 309 309 308 308 309 309 308 308 308 308 308 307 303 300 300 302 300 303 304 304 304 305 305 305 305 305 304 304 303 302 300 299 297 298 298 299 301 305 308 309 309 310 309 309 309 309 309 311 311 312 314 315 317 318 319 320 321 322 321
300 300 300 300 300 300 300 301 300 301 302 303 304 305 306 306 305 307 306 307 306 306 306 306 306 306 306 307 307 307 308 309 308 307 307 307 306 305 305 303 299 296 300 300 302 302 304 303 301 303 303 303 304 303 301 301 301 299 296 297 297 297 299 302 306 308 308 308 309 309 309 309 310 310 310 310 310 311 312 313 313 313 313 312 312
301 298 299 298 299 299 299 299 300 300 300 299 299 299 300 300 301 299 302 303 303 302 303 303 304 305 305 306 306 307 307 307 306 306 307 307 307 307 306 304 303 299 296 296 298 299 302 302 301 301 301 300 301 301 300 300 299 298 299 298 298 298 298 301 304 306 307 308 308 309 309 309 309 309 309 309 310 310 310 310 310 310 310 311 312
298 297 297 297 297 296 297 296 296 297 297 297 297 297 297 295 296 296 296 298 297 297 298 299 300 300 301 301 302 302 303 303 303 303 302 303 303 304 304 305 304 300 299 296 296 301 302 304 303 304 298 300 299 299 299 300 298 298 300 299 299 298 299 300 302 304 305 307 307 307 308 308 309 309 308 308 308 309 310 310 310 310 310 312 313
296 296 295 294 293 292 293 292 294 293 294 294 293 293 293 292 292 292 293 293 292 292 293 295 298 298 298 298 299 299 300 301 301 301 301 302 303 304 304 305 303 303 301 299 294 299 302 300 301 301 303 300 299 301 301 300 299 299 300 300 300 299 297 299 299 301 304 306 306 306 308 308 308 308 308 307 308 309 310 310 309 309 310 311 312
293 292 291 290 290 290 291 291 291 290 291 290 290 289 289 289 288 289 288 289 289 289 291 292 293 294 295 296 296 296 297 298 298 298 299 300 301 302 302 302 302 302 302 300 297 296 302 301 302 303 303 303 303 302 303 302 300 295 300 302 303 298 300 301 299 300 301 303 305 305 305 306 306 307 306 307 307 308 308 308 308 308 309 310 310
290 290 290 290 289 290 289 289 288 288 288 288 287 287 286 287 286 287 287 287 288 287 287 289 289 290 289 293 293 293 294 295 296 296 297 297 298 299 299 299 299 299 299 297 295 294 297 300 300 300 301 301 300 301 300 300 300 301 298 301 301 301 300 300 299 297 298 300 301 301 302 303 303 303 304 304 305 305 305 306 307 307 307 307 307
289 290 289 288 287 288 288 287 287 285 287 288 286 286 287 287 286 288 287 287 287 287 286 288 288 287 288 290 291 291 290 291 292 293 293 294 294 295 295 296 296 296 298 296 295 294 293 296 295 297 297 299 297 300 298 298 299 299 298 297 298 298 298 298 297 297 296 298 299 300 303 303 302 302 302 303 303 304 306 307 305 304 305 305 305
288 288 288 288 287 286 286 286 286 286 286 286 285 286 286 285 287 286 285 285 287 287 287 288 288 287 287 288 289 289 289 288 289 290 290 290 291 291 292 293 293 294 294 295 294 291 292 292 294 294 295 295 295 296 297 298 298 299 298 299 299 298 297 297 297 297 297 298 300 302 302 301 302 302 302 302 302 302 302 302 302 302 302 302 303
288 287 287 286 285 286 287 287 287 285 286 286 285 285 286 286 286 287 287 285 286 286 287 288 288 287 287 287 288 288 287 287 288 288 288 287 288 288 289 290 291 291 292 293 294 293 292 291 293 293 293 293 294 295 296 296 296 296 297 297 298 297 297 296 295 295 296 299 300 300 301 300 300 300 301 301 301 301 301 301 301 300 300 301 301
286 286 286 285 286 287 288 287 286 285 285 286 286 285 285 285 285 286 286 286 286 286 286 287 288 287 287 287 288 288 287 286 287 286 286 286 286 286 287 288 289 290 290 291 292 292 292 291 291 293 293 292 293 294 294 293 294 294 294 294 295 295 296 296 295 294 294 296 296 296 297 298 299 299 299 300 300 299 300 299 299 299 299 299 299
285 284 285 286 286 286 284 285 285 285 285 285 285 286 286 284 284 284 284 285 285 285 286 286 286 286 286 287 287 287 287 286 286 287 286 286 286 286 286 287 288 288 288 289 290 291 291 291 291 291 292 291 290 291 292 291 292 292 293 294 294 294 292 292 291 291 290 290 290 291 293 294 296 297 297 297 297 298 298 298 298 298 297 297 298
285 285 285 285 284 284 284 284 285 285 286 285 284 284 284 284 284 284 284 284 284 284 285 285 285 285 286 286 286 286 286 286 286 286 286 286 286 286 286 286 287 286 287 287 288 288 289 289 289 290 290 291 291 289 291 290 291 292 291 291 291 293 292 291 291 291 288 288 290 292 292 292 292 292 294 295 296 296 296 296 296 296 296 296 297
285 284 284 284 283 283 283 283 283 283 283 284 283 284 284 284 283 283 283 284 284 284 284 284 284 284 285 285 285 285 286 286 286 286 286 286 286 286 287 286 286 286 286 286 286 287 288 288 288 288 288 288 289 290 290 289 288 289 290 290 288 289 290 289 288 289 290 287 287 288 290 291 291 292 294 294 294 294 294 293 294 294 294 295 296
284 282 282 283 283 282 282 283 283 283 284 285 285 284 285 285 284 284 284 284 283 283 283 283 283 284 284 284 284 285 285 286 287 287 288 288 287 286 287 287 286 286 286 286 286 286 286 287 287 287 287 287 287 287 287 287 286 286 288 288 288 289 289 289 290 290 288 288 287 287 287 287 287 287 287 287 288 290 290 291 291 291 293 294 297
281 281 282 282 282 282 282 283 283 284 284 284 285 289 290 287 285 285 284 283 283 282 282 283 283 282 282 283 284 284 285 285 286 287 288 288 289 288 287 287 286 286 286 285 285 285 285 284 285 285 284 285 285 286 286 286 287 288 288 288 287 288 289 289 290 291 288 287 287 286 287 287 286 286 286 285 287 287 287 287 288 289 291 294 297
282 282 281 281 281 282 282 282 283 283 284 284 287 290 290 291 287 284 283 283 282 282 282 282 282 282 282 282 282 283 283 284 284 286 287 288 288 288 289 289 288 287 286 285 285 286 285 284 285 285 284 284 285 286 286 286 287 287 287 287 288 288 288 287 286 289 287 287 286 287 287 287 286 284 285 285 286 286 286 287 289 290 292 294 297
281 280 281 280 281 281 282 281 281 282 282 285 289 289 290 290 289 286 284 283 283 282 282 282 282 282 282 282 282 283 283 283 283 283 284 286 287 287 288 288 288 289 289 287 286 285 285 285 285 285 285 284 285 286 286 286 286 286 287 287 287 287 287 287 287 287 288 287 285 285 286 286 285 285 284 285 286 286 286 288 290 291 293 295 296
280 280 280 280 280 280 280 280 281 282 281 285 288 289 289 289 290 288 284 283 282 282 282 281 281 281 281 282 282 283 283 283 283 282 282 282 285 286 286 286 287 287 288 289 290 288 287 286 286 286 286 286 286 286 287 287 287 286 286 286 287 287 287 287 288 288 289 286 284 284 284 286 285 283 284 285 286 286 286 289 291 292 293 295 295
279 278 278 279 279 280 280 280 280 281 281 284 287 288 288 289 289 289 283 282 282 281 281 281 281 281 281 281 281 281 282 282 282 281 282 282 283 283 283 284 284 285 286 287 287 288 288 287 286 285 287 288 287 287 288 288 287 286 286 286 287 286 286 287 288 289 290 286 285 285 283 285 284 283 283 285 285 285 286 288 291 292 294 295 294
278 279 279 278 279 279 279 278 279 281 282 285 286 287 288 288 288 288 282 282 281 281 281 281 281 281 281 281 281 281 281 281 282 283 283 283 283 284 284 284 284 284 284 285 285 285 286 286 287 287 287 288 288 289 289 289 288 288 288 287 287 287 288 288 288 289 289 287 286 285 282 286 283 283 283 284 284 284 285 288 291 293 294 293 293
277 277 278 277 277 278 279 279 280 280 280 284 286 286 287 287 287 283 281 281 280 280 280 280 280 280 280 280 280 280 281 281 283 286 286 285 284 283 282 282 282 283 283 285 287 288 287 287 287 287 287 288 289 289 289 289 289 289 288 288 288 287 286 285 285 287 287 287 286 284 283 284 283 282 282 282 283 283 285 285 290 293 293 293 293
277 277 276 276 277 278 279 280 278 276 278 282 285 286 286 286 285 281 280 280 280 279 279 280 280 280 280 280 280 281 281 281 284 286 286 285 282 281 281 280 281 282 282 284 286 288 288 288 289 289 289 289 289 290 290 291 289 290 288 286 285 286 284 282 284 286 286 287 284 285 284 283 283 282 279 279 281 282 284 285 287 291 292 292 292
277 277 276 277 278 278 277 276 276 275 276 280 283 284 284 285 283 280 279 279 278 278 279 279 280 280 280 281 281 281 281 281 284 284 285 283 281 281 281 281 281 281 282 284 285 285 287 288 288 288 288 289 289 289 289 289 289 289 287 283 285 286 283 284 283 285 286 287 284 285 282 282 282 280 277 279 278 278 280 283 285 287 290 290 291
276 276 275 276 276 276 274 274 278 276 274 277 282 283 283 283 282 279 279 278 277 277 278 278 279 279 279 280 281 281 281 281 284 284 285 283 282 282 281 281 281 281 282 283 283 283 283 283 284 285 285 286 286 286 286 288 288 287 287 287 287 285 283 283 284 284 283 285 285 285 281 281 278 279 278 276 274 275 276 278 284 285 285 286 287
Wind_Speed
5 5 4 6 5 5 5 6 5 6 5 5 5 5 4 5 5 4 3 4 1 2 2 3 2 3 3 3 3 3 3 3 3 0 4 4 6 7 10 9 9 8 9 10 11 8 10 10 11 9 8 9 6 8 13 10 7 9 7 9 8 9 9 9 9 8 9 8 9 10 10 11 12 11 11 12 11 10 10 10 11 10 8 11 9
6 5 5 5 5 5 5 5 6 6 6 6 5 6 5 3 3 3 4 3 3 4 3 4 4 4 3 4 4 5 4 4 4 4 3 4 5 6 10 10 11 9 10 10 12 11 11 12 11 10 10 11 10 11 12 11 10 11 10 10 10 10 10 11 11 11 11 10 11 11 12 12 11 11 13 12 12 12 10 10 12 12 12 12 12
5 5 5 5 5 5 5 5 5 4 5 6 4 5 4 4 4 4 4 4 5 5 4 5 5 4 4 4 5 4 5 4 4 4 3 4 5 5 7 11 11 11 10 10 13 12 13 13 13 13 13 13 14 13 11 12 12 12 12 11 12 12 12 12 13 13 12 12 13 13 13 14 14 14 14 14 13 12 14 14 14 13 14 12 13
4 3 5 5 5 6 5 4 5 5 5 5 5 5 5 5 4 4 4 4 5 4 3 4 5 5 4 4 4 4 5 4 4 4 4 4 3 5 6 7 11 12 12 12 13 14 14 14 15 16 15 15 15 15 14 15 15 13 14 14 14 14 14 14 14 14 14 14 14 15 14 15 15 15 16 16 16 16 16 15 15 15 14 14 15
4 3 4 5 5 5 5 5 5 5 4 4 4 4 4 4 4 2 3 2 2 4 2 3 5 5 3 5 5 5 5 5 5 5 4 5 5 4 5 6 6 10 12 12 13 14 15 16 15 16 17 16 16 17 17 17 18 17 15 17 16 15 15 15 15 15 16 16 16 17 16 16 16 16 16 17 18 18 16 16 17 16 16 17 17
4 3 3 4 4 4 5 5 5 4 4 4 5 4 5 4 4 2 4 4 4 4 2 4 4 4 4 4 3 6 5 6 6 6 5 5 6 5 5 5 6 6 7 11 13 13 14 16 17 17 17 17 18 18 18 17 17 18 20 18 18 18 18 17 17 18 18 18 18 18 18 18 19 19 19 20 19 19 19 18 18 17 18 18 18
3 1 1 2 3 5 4 6 5 4 5 5 5 4 4 5 4 4 3 4 4 4 3 5 5 6 6 4 6 5 4 6 5 6 6 6 6 5 6 5 6 6 6 7 9 14 14 15 18 19 19 19 19 19 19 20 21 20 20 21 20 20 20 19 20 20 21 22 22 19 20 20 20 20 21 20 20 20 21 21 19 19 19 18 18
4 2 1 1 2 3 4 4 4 4 4 3 3 5 5 4 3 4 4 5 3 5 3 6 6 7 6 6 6 6 6 6 6 6 6 6 7 6 6 6 6 6 6 6 7 9 15 15 15 17 18 21 20 21 21 22 21 21 20 21 21 22 21 20 20 22 23 22 23 22 21 21 21 23 22 22 22 21 21 21 21 21 21 21 20
5 4 2 3 3 3 3 3 3 4 5 5 5 5 4 4 4 4 4 5 4 5 5 5 6 7 6 6 6 6 6 7 7 6 5 6 7 7 6 7 7 7 7 7 7 7 11 15 17 18 18 19 22 23 23 23 23 23 23 23 24 24 22 20 22 24 23 22 22 23 23 21 23 23 23 24 23 23 23 23 24 23 24 24 24
6 5 6 6 4 4 4 4 3 3 4 4 6 5 4 5 5 4 5 5 5 5 6 6 6 6 6 7 7 6 6 6 6 5 6 7 7 7 8 7 7 7 7 7 7 7 7 10 15 17 18 18 19 23 24 24 25 25 25 24 23 23 22 22 23 22 20 23 22 24 23 23 25 25 25 25 24 25 25 25 25 25 25 24 24
6 7 7 7 7 5 4 4 4 4 4 5 5 5 4 4 5 5 3 6 6 5 6 5 5 5 6 7 6 5 5 4 5 5 6 6 7 8 5 7 7 7 7 8 8 7 7 7 7 7 10 17 18 20 23 26 25 26 27 27 26 26 25 25 25 22 20 22 23 24 24 25 26 26 27 28 27 27 27 27 27 27 26 26 26
6 6 6 6 6 6 6 4 5 5 6 5 5 5 6 6 5 6 5 4 4 5 4 4 4 4 5 6 5 5 5 5 5 6 6 7 8 7 7 7 6 7 7 7 7 6 7 8 8 9 8 11 16 18 21 22 22 25 27 28 29 28 28 25 24 23 21 23 26 25 26 28 29 28 30 28 28 29 27 28 28 27 27 26 28
6 5 6 6 6 6 5 6 6 6 6 7 7 7 6 7 7 6 7 6 4 4 2 1 2 5 5 6 7 6 8 8 9 9 10 9 7 8 8 7 7 8 8 7 7 7 7 8 9 9 9 8 10 15 18 19 19 22 25 28 30 31 31 29 27 27 22 24 26 26 27 29 28 27 28 29 30 29 29 30 29 29 30 29 29
7 7 7 7 7 6 6 8 8 7 7 6 4 4 4 3 3 3 2 5 4 2 3 2 3 5 5 5 5 6 9 9 9 9 9 8 8 8 8 8 9 9 7 7 7 7 8 9 9 9 9 9 9 9 10 12 14 19 23 26 29 33 33 32 31 29 28 24 24 26 26 27 28 31 31 32 31 30 31 32 33 31 31 32 30
7 8 8 7 7 6 7 6 6 5 4 3 3 3 4 4 3 4 4 2 2 1 4 6 6 2 1 3 6 5 2 2 5 8 8 9 8 8 9 7 10 8 7 6 7 8 8 9 9 9 9 9 9 9 9 11 13 16 19 21 23 28 33 33 33 32 31 30 26 27 28 26 28 29 31 31 32 32 33 34 33 33 32 32 31
8 8 8 7 7 7 6 6 6 4 5 4 4 5 4 5 6 6 3 5 3 4 5 6 5 2 5 4 3 0 10 4 4 5 6 10 8 8 6 7 8 7 6 8 9 8 8 8 9 9 10 9 9 9 9 9 14 17 19 20 22 23 27 30 31 34 33 31 32 30 28 28 27 28 28 31 33 35 35 33 32 33 34 32 32
6 7 7 8 7 6 5 5 5 5 6 5 5 8 9 8 6 5 5 6 7 5 2 4 6 5 6 3 4 1 5 5 4 7 5 4 5 7 7 7 8 8 7 8 7 7 8 8 9 9 9 9 9 9 9 10 10 11 14 18 19 21 22 27 29 31 34 33 33 32 31 29 26 30 30 30 31 33 35 35 35 35 35 34 34
4 4 5 4 5 5 4 4 5 4 4 6 8 7 4 4 5 5 6 6 7 6 4 3 8 7 7 7 6 7 8 4 5 8 0 4 6 5 7 7 7 7 7 8 8 9 8 9 9 10 9 9 9 9 9 10 10 10 10 12 18 16 19 22 28 30 31 35 35 34 33 32 32 32 30 32 29 31 33 34 35 32 34 36 35
4 5 5 5 5 4 5 6 6 5 6 6 5 4 4 5 6 6 7 5 4 7 9 7 1 4 6 9 9 9 8 6 7 6 11 2 3 3 5 5 7 7 7 8 9 8 7 8 10 11 10 9 9 9 9 10 13 14 15 16 20 19 21 20 23 26 30 32 34 36 35 34 33 33 32 32 31 31 32 34 31 33 33 35 35
3 2 2 2 3 3 3 4 4 4 3 3 4 5 5 5 3 4 5 7 8 9 8 3 5 3 5 7 8 8 7 7 8 9 10 13 11 8 7 9 7 8 7 8 8 9 9 9 10 10 9 10 9 9 9 10 10 10 11 17 20 23 22 22 23 24 26 28 30 32 35 36 35 33 33 34 31 33 30 29 29 34 34 31 33
4 3 3 3 3 1 1 1 1 2 1 2 2 3 3 3 3 5 6 5 4 5 4 7 5 7 4 7 6 7 6 6 7 4 6 9 14 8 13 4 5 5 7 7 8 8 9 11 11 10 10 10 8 9 9 9 10 10 12 16 20 23 24 25 24 24 24 24 26 29 31 32 34 34 34 34 35 33 31 31 28 33 33 31 33
5 4 4 4 5 5 5 4 3 3 2 2 2 2 2 2 3 4 3 4 4 6 7 6 8 7 4 2 2 3 3 4 5 6 6 9 13 15 11 13 15 11 5 7 8 10 9 10 11 9 9 9 8 9 9 10 10 10 12 18 17 21 24 24 24 23 23 23 23 25 29 31 32 33 33 34 34 34 33 33 31 29 28 29 32
2 2 2 2 3 3 3 2 1 2 3 3 3 3 3 2 3 3 3 3 4 4 5 5 4 4 5 4 5 5 7 7 7 6 8 6 8 12 11 9 11 15 11 7 8 9 8 10 9 9 9 9 8 8 8 10 12 14 18 18 18 17 19 20 23 23 23 24 24 25 26 29 30 31 32 32 32 31 33 33 32 32 31 30 30
3 3 3 4 3 3 3 3 4 4 4 3 4 4 4 4 4 3 3 3 3 3 3 4 5 4 5 5 7 7 7 7 6 5 4 7 7 12 12 12 13 10 9 9 7 9 7 11 9 10 9 8 7 8 9 9 11 18 16 17 17 19 21 22 23 22 23 23 24 25 26 26 28 29 30 31 32 31 31 32 34 33 32 32 32
4 3 4 3 3 4 2 1 1 2 2 4 4 5 5 5 4 5 5 4 4 4 4 4 5 5 5 4 4 4 6 5 5 5 5 5 7 10 13 8 12 17 13 8 10 5 7 10 7 9 8 9 9 8 8 9 9 13 16 12 17 18 20 20 22 23 23 22 22 23 24 27 29 28 27 28 29 30 31 31 32 32 32 33 33
4 5 3 5 6 4 4 5 4 4 4 2 1 1 2 4 4 4 5 5 5 5 4 3 3 4 4 4 4 5 5 5 6 6 8 6 6 8 12 13 11 13 13 11 9 10 5 7 8 8 8 9 9 9 7 9 9 13 15 12 13 17 19 18 20 21 22 22 24 23 24 24 26 29 27 27 28 28 29 29 30 31 31 33 32
4 3 3 4 4 4 4 4 4 4 4 5 5 3 1 1 2 3 4 4 5 5 4 5 5 5 5 5 5 5 5 5 5 6 5 6 9 9 7 11 15 14 13 13 11 10 12 7 8 8 8 8 8 8 8 7 10 13 12 10 9 14 16 18 20 22 22 22 22 23 23 24 24 25 25 26 26 28 29 29 30 30 31 31 32
3 4 4 4 4 4 4 5 4 4 4 4 4 5 5 5 4 4 4 4 6 6 6 6 6 7 6 6 6 6 6 6 7 7 7 7 6 6 7 10 12 17 17 17 14 9 4 6 3 6 7 7 7 6 8 9 8 12 12 8 8 9 14 16 20 21 22 21 22 21 22 23 23 24 25 24 24 25 27 28 28 27 26 27 28
5 4 5 5 5 5 6 6 6 5 5 5 5 5 4 5 5 5 5 4 5 4 5 6 6 7 6 7 6 6 5 5 6 5 6 6 6 6 5 7 7 9 11 15 22 15 9 3 6 5 6 5 6 6 7 7 9 11 8 8 8 8 11 14 18 20 21 22 21 22 22 22 23 23 23 23 23 24 25 26 25 25 29 29 28
5 4 5 6 6 6 6 6 5 6 5 6 6 6 6 6 5 5 3 3 3 2 2 3 5 5 6 7 6 7 7 6 7 6 6 6 7 8 8 8 8 12 13 15 21 17 10 10 6 8 2 5 5 6 6 8 10 12 9 9 9 9 13 17 20 22 23 23 22 23 22 23 23 23 24 23 22 23 25 25 26 28 29 28 28
7 6 7 7 6 6 5 5 6 5 5 5 5 6 5 5 5 5 5 4 4 4 3 3 4 4 4 6 5 5 5 6 7 6 6 6 6 6 6 6 6 6 9 8 15 20 7 12 9 3 8 7 5 7 6 6 8 10 9 9 9 13 18 18 21 22 25 26 25 26 26 24 24 24 23 23 24 24 25 26 28 27 29 29 28
6 6 6 5 5 5 5 5 5 5 5 4 4 4 5 4 2 3 3 3 4 4 4 4 3 3 4 6 6 5 5 5 6 6 6 5 6 6 6 7 8 8 10 11 13 22 18 10 14 13 8 13 10 8 11 8 8 13 10 12 14 18 15 13 18 21 20 22 21 20 20 22 24 24 24 25 25 25 26 26 28 30 29 29 27
6 6 5 5 4 5 4 5 4 4 4 4 4 3 3 3 3 3 4 4 4 4 4 5 3 3 3 5 6 6 4 5 6 6 6 6 6 6 6 7 8 7 8 11 14 19 20 12 9 12 11 10 15 9 10 12 10 10 11 12 13 13 13 12 12 17 20 18 16 17 24 21 23 24 24 25 24 25 26 26 28 29 30 29 28
5 5 5 4 4 4 5 4 4 4 3 3 3 3 4 4 4 3 3 4 4 4 4 5 5 4 4 5 7 6 4 5 6 7 6 7 6 7 7 7 8 8 6 8 11 13 20 20 14 8 10 8 15 14 10 12 14 9 11 11 10 11 12 12 12 12 19 21 23 25 25 24 23 24 24 22 23 25 27 30 29 25 26 27 26
4 5 5 5 5 4 4 4 4 4 4 4 4 4 4 3 4 4 3 4 4 5 5 6 6 4 5 5 8 7 5 5 7 7 6 7 7 8 9 7 10 10 9 10 10 14 18 20 18 15 12 9 11 15 12 10 12 12 14 13 12 10 10 12 13 12 16 20 27 25 25 25 26 24 22 23 22 22 22 22 23 24 25 26 25
7 5 5 4 4 4 4 5 5 4 4 4 4 3 3 3 4 4 4 4 4 4 5 6 6 5 6 7 8 7 6 7 8 7 7 7 7 8 9 8 9 11 10 9 11 12 14 17 20 16 12 12 13 11 11 10 12 13 13 13 12 13 13 11 12 13 14 22 23 23 23 21 21 22 23 23 22 22 22 22 22 22 24 23 23
5 5 4 3 4 5 6 5 4 4 4 3 3 4 3 3 4 4 4 4 4 5 5 6 7 6 7 7 9 7 6 8 9 8 8 9 8 8 9 9 9 10 9 9 10 11 13 16 19 18 15 12 13 14 11 11 13 12 11 12 12 13 14 12 10 12 16 19 19 20 20 23 24 23 24 24 23 23 23 22 21 22 23 22 21
4 4 4 5 5 5 4 3 2 3 3 4 4 4 4 4 3 4 4 4 5 5 6 6 6 6 7 8 8 7 7 8 11 10 9 10 9 9 10 10 10 9 10 10 9 11 13 15 15 17 17 17 16 14 10 7 13 15 13 12 12 12 12 11 10 10 8 7 7 11 15 20 23 23 23 22 24 24 23 24 25 23 20 19 20
5 5 5 5 4 3 3 3 3 3 4 4 4 4 4 4 4 4 5 5 5 5 5 6 6 7 7 8 8 8 8 9 10 11 11 11 10 12 11 11 11 10 10 11 10 11 13 14 14 14 16 17 16 18 12 7 10 12 14 14 17 13 9 10 12 9 6 9 12 18 16 15 16 13 19 23 23 23 23 22 23 24 20 19 21
5 4 4 3 3 2 2 3 3 3 4 4 4 4 4 4 4 4 4 6 7 6 7 7 7 7 8 8 8 9 9 9 9 11 10 12 11 13 12 8 11 11 12 11 11 11 12 12 13 16 14 16 17 14 12 9 12 12 9 10 15 17 14 7 9 10 7 7 8 9 13 15 14 19 23 22 23 22 21 20 21 21 19 19 22
4 3 1 1 2 3 3 3 4 3 3 4 4 4 6 7 5 6 7 7 7 8 9 8 7 7 8 8 8 8 10 13 16 16 16 15 12 14 15 11 10 11 13 12 12 11 11 12 15 14 15 16 16 16 15 13 13 12 11 8 12 13 12 13 13 9 9 9 8 9 9 8 9 10 10 9 11 15 15 19 15 18 19 21 22
2 2 2 2 3 3 4 4 3 4 4 4 8 13 10 7 6 6 6 6 7 7 9 10 9 7 7 8 9 13 15 16 17 18 19 19 19 15 15 14 14 13 13 14 14 12 12 14 15 15 16 17 17 15 15 15 13 11 13 12 14 13 13 14 14 11 6 8 9 10 11 8 9 11 9 9 10 8 9 9 9 10 13 20 22
2 2 2 4 4 4 4 5 7 7 6 6 14 14 14 15 9 6 6 7 6 7 7 9 10 11 9 8 8 10 11 11 11 15 17 19 19 20 22 21 18 16 15 16 16 14 14 14 15 16 16 19 19 16 16 15 12 12 12 11 12 12 12 14 16 12 4 9 9 11 11 8 9 10 10 9 9 9 8 10 12 16 18 19 23
3 2 4 4 4 4 4 5 5 6 6 10 13 13 15 15 13 9 7 7 8 7 7 9 10 10 11 11 10 7 7 8 10 11 14 17 19 19 21 21 22 23 21 17 16 16 15 16 17 17 17 18 18 16 16 14 15 13 12 12 12 13 14 14 14 14 4 7 8 10 11 4 7 9 9 9 9 8 10 11 16 17 19 22 24
3 5 4 4 4 4 4 5 6 6 5 9 12 13 14 14 15 13 7 7 8 9 9 9 10 10 10 12 13 11 8 11 10 9 12 14 17 21 20 20 20 21 21 22 22 18 16 18 18 21 18 18 19 18 15 15 13 16 15 14 13 14 13 15 14 13 11 5 6 8 11 8 7 8 10 9 8 8 8 13 18 19 20 24 24
4 4 4 4 3 4 4 4 5 6 6 8 13 14 14 15 15 13 6 7 7 8 8 9 9 10 10 11 12 14 14 11 8 9 11 13 15 17 16 14 14 15 17 19 19 21 20 17 18 20 20 17 20 19 19 17 17 17 17 17 15 16 15 16 16 16 15 5 10 9 9 9 5 7 10 9 6 7 7 10 16 19 22 26 25
4 4 4 4 4 4 4 4 4 6 6 10 12 14 14 16 17 11 7 7 8 8 8 7 8 9 10 10 11 13 14 14 12 14 14 14 15 15 16 17 16 15 14 13 11 11 12 12 14 17 19 19 20 21 19 17 18 18 17 19 20 19 19 19 17 17 15 8 10 7 11 9 5 9 11 7 4 6 6 9 17 18 20 24 23
2 2 3 3 4 5 4 4 3 6 7 10 12 12 15 17 17 7 7 8 9 9 10 8 8 8 8 9 10 13 14 14 17 23 20 16 14 18 20 20 20 18 16 15 18 17 16 15 15 17 17 20 24 23 22 20 18 17 18 17 16 16 16 16 16 13 14 6 9 10 9 8 5 8 7 2 4 5 5 6 14 20 22 22 23
4 4 4 3 3 3 4 4 3 4 6 9 12 13 15 19 12 8 8 8 9 10 11 9 9 9 8 8 9 11 13 13 19 27 29 27 17 18 17 18 17 17 17 15 16 20 21 22 24 29 35 37 37 38 37 37 28 23 19 18 19 15 18 19 17 16 15 8 6 10 9 9 5 6 3 1 2 4 5 6 7 18 23 23 24
4 3 3 3 3 3 3 4 4 4 5 9 12 14 16 17 15 9 8 9 10 10 10 10 9 9 9 14 12 10 13 14 24 30 30 24 16 15 16 16 18 17 16 14 13 14 18 22 25 26 28 29 32 35 36 35 35 26 18 19 17 15 18 18 17 15 13 9 7 9 5 9 4 4 4 1 3 3 3 1 5 8 18 21 23
2 3 3 3 4 3 3 3 6 4 4 6 10 14 16 17 13 7 8 8 10 11 11 12 11 11 11 10 16 17 17 21 30 29 31 24 17 16 16 17 18 17 14 14 15 18 17 17 15 15 17 19 18 15 17 26 29 28 21 19 16 16 16 18 19 17 15 12 6 12 9 4 8 5 7 3 1 2 1 4 2 6 7 7 10
Wind_Direction
183 195 167 185 198 195 195 197 191 207 184 206 184 201 208 178 197 217 222 218 225 252 247 258 273 264 228 258 248 256 273 287 286 191 200 206 201 212 208 207 215 222 235 247 261 227 233 228 227 242 243 245 261 219 209 236 242 241 245 245 241 245 245 243 247 251 255 249 247 236 236 233 216 229 222 216 219 222 223 210 214 233 229 209 210
186 202 173 188 198 197 194 194 190 191 183 194 194 176 194 197 204 219 202 223 230 242 229 238 247 241 224 237 247 232 232 251 271 261 188 205 216 220 222 215 214 217 227 240 252 254 243 241 247 247 237 249 240 242 252 252 240 242 248 249 251 244 244 242 243 241 243 244 243 239 234 238 243 234 235 226 223 222 226 240 229 209 229 226 220
187 189 193 190 192 193 195 186 192 197 184 202 182 186 187 191 202 210 213 218 231 232 212 229 238 248 242 224 230 228 240 244 265 273 261 205 210 219 226 226 222 221 221 228 237 241 248 249 249 244 245 243 245 254 255 255 246 250 250 249 248 247 243 244 242 243 242 242 241 242 240 238 236 234 235 238 233 228 225 220 233 233 225 226 232
164 202 192 190 190 193 197 179 204 209 191 196 191 195 188 204 209 212 212 205 229 240 223 213 232 232 237 240 239 226 234 242 246 259 263 268 207 215 219 229 234 228 225 224 227 234 244 255 253 254 254 246 246 252 249 243 244 243 248 249 250 247 244 244 242 244 242 244 243 243 242 241 240 238 237 235 233 228 230 231 228 228 233 234 234
178 175 207 194 185 186 197 202 202 206 200 196 189 197 200 198 229 222 211 193 233 262 280 251 243 244 232 248 244 242 234 232 245 245 254 254 253 217 212 219 228 241 238 231 231 232 237 242 249 255 257 254 256 255 253 245 248 254 239 242 249 251 245 239 241 241 245 242 240 240 237 237 239 239 240 236 236 241 234 231 236 235 233 231 235
191 191 180 184 185 188 196 210 213 207 197 189 193 192 204 197 221 191 224 222 239 254 289 285 269 272 256 247 242 241 233 237 237 240 242 247 248 242 225 216 221 228 237 245 242 239 236 237 242 245 250 254 258 262 260 258 256 258 253 243 245 248 243 237 235 232 228 238 239 235 236 234 233 234 237 238 238 238 242 240 236 237 234 238 237
163 160 181 221 202 189 199 216 210 198 190 200 190 198 196 211 195 205 246 249 247 261 259 260 267 269 260 258 253 247 238 236 238 242 240 242 243 247 235 219 222 223 227 231 245 246 244 242 239 241 245 250 254 257 258 254 255 259 256 252 246 246 244 239 239 235 227 235 237 235 235 234 234 234 234 236 234 236 236 239 239 238 240 238 241
163 152 184 186 235 249 213 203 206 186 192 193 181 194 209 218 220 196 225 253 256 265 244 251 253 259 259 253 255 248 237 237 238 241 242 242 243 242 238 235 224 223 226 228 231 237 238 241 244 244 245 247 249 252 254 258 262 261 259 256 256 256 254 250 244 242 239 233 232 238 226 231 235 234 235 234 234 233 234 234 234 234 235 235 235
201 202 211 230 233 215 244 212 200 200 199 199 195 203 196 212 238 223 206 234 222 246 253 241 248 247 248 248 245 242 238 233 237 238 246 243 246 243 243 236 234 232 224 226 230 236 238 236 240 243 245 246 248 250 253 257 260 261 261 257 254 256 257 254 248 248 247 241 234 227 227 230 228 236 233 232 233 233 233 234 235 233 234 234 233
202 204 235 250 229 224 228 221 197 203 220 205 211 197 199 197 231 235 214 218 233 231 244 243 242 251 252 247 248 235 235 234 235 240 234 245 245 244 238 238 237 234 234 233 230 230 234 240 241 243 243 244 245 247 249 253 257 261 263 262 262 261 257 251 252 251 243 243 240 236 234 225 227 231 228 233 236 234 233 232 233 235 234 233 233
206 200 207 220 237 233 224 229 233 229 212 213 212 205 210 210 215 241 230 220 222 227 234 237 253 257 259 256 258 255 259 251 243 239 241 244 251 254 256 249 244 242 240 238 239 238 236 237 243 241 244 243 244 244 247 249 252 255 259 262 261 261 258 256 255 250 242 250 244 242 240 231 230 231 229 236 234 231 233 234 234 233 232 231 233
203 200 199 208 222 233 235 236 237 234 232 222 221 206 210 214 222 220 242 254 241 251 249 258 279 294 288 291 277 281 289 288 284 267 261 250 248 250 249 253 249 251 247 245 247 244 243 246 244 246 245 247 245 247 249 249 251 252 255 259 262 264 265 265 260 256 238 238 246 244 241 240 241 238 236 235 230 234 235 234 236 234 233 233 231
207 201 205 209 212 219 222 229 223 217 218 222 216 217 213 207 213 201 210 232 249 224 251 137 292 292 275 272 284 268 255 256 255 252 247 250 251 251 253 257 253 252 250 251 249 246 243 245 247 249 249 248 252 252 251 254 255 254 254 256 259 263 265 265 264 262 257 246 242 237 239 242 243 240 238 234 233 236 236 235 235 236 236 233 232
202 203 211 210 213 210 212 220 213 211 210 210 211 215 221 232 223 239 220 218 245 195 213 147 256 237 282 296 290 278 252 238 245 250 250 254 252 250 253 246 251 250 253 250 251 245 246 244 246 246 247 247 249 251 254 254 254 255 257 257 257 259 262 263 264 263 260 257 254 246 239 239 241 244 242 239 238 237 236 236 235 231 231 229 229
200 205 209 212 210 213 219 216 216 214 225 225 195 201 191 195 191 206 245 244 245 222 205 188 245 177 201 326 284 309 304 301 251 250 248 252 247 246 243 243 249 248 251 255 249 248 246 246 247 245 245 245 246 248 250 250 252 250 252 254 257 260 261 264 266 265 264 262 254 253 254 248 243 242 244 245 241 239 239 239 236 235 234 233 233
196 198 203 207 210 212 210 206 207 194 199 219 222 229 214 216 211 216 203 261 234 256 205 211 211 160 297 213 265 24 305 272 278 273 227 236 235 244 238 243 249 255 248 245 247 245 249 248 248 247 246 245 243 245 247 248 250 253 254 256 257 257 260 262 264 267 268 265 265 261 255 251 245 244 242 239 238 241 243 243 239 235 234 235 235
190 195 201 210 213 211 201 208 208 209 204 215 226 229 224 218 205 201 200 219 252 250 249 199 225 220 239 308 309 269 231 282 326 277 230 257 259 239 243 238 242 244 239 247 251 251 251 252 248 246 246 243 244 244 244 248 251 251 254 254 255 257 260 260 261 264 266 269 268 266 263 258 248 254 247 246 244 245 242 241 239 241 238 236 236
187 199 206 216 218 211 213 217 227 224 205 216 227 231 226 210 204 205 219 216 232 249 263 205 216 219 226 233 235 274 301 281 344 298 328 209 243 224 234 231 238 249 238 249 245 245 237 249 248 250 245 242 242 242 242 245 246 248 248 253 249 247 250 254 258 261 264 267 268 269 268 265 264 259 254 253 250 250 249 247 243 242 241 240 237
195 197 203 203 208 214 218 221 221 220 222 226 232 215 206 208 213 209 218 210 200 238 238 241 129 243 225 233 245 250 256 293 275 306 300 263 245 271 265 235 233 239 242 242 246 249 248 245 251 250 248 244 242 240 240 245 245 246 245 248 252 252 252 251 253 257 262 265 267 268 268 269 268 267 263 259 255 253 252 250 244 243 240 242 243
199 191 195 210 225 242 247 240 231 227 195 201 210 213 213 231 225 225 222 215 214 222 243 217 211 251 210 232 242 254 263 261 259 265 286 297 292 281 247 257 246 243 241 248 245 244 248 247 250 251 250 246 240 240 239 243 246 248 250 250 251 253 253 253 252 255 257 260 263 266 268 270 272 271 270 269 264 261 254 251 250 247 242 240 244
59 80 92 112 125 144 216 257 293 333 335 329 325 316 284 277 250 220 226 239 223 230 233 236 215 240 225 240 232 240 248 243 265 256 261 292 289 285 297 262 248 255 262 237 248 242 243 249 249 248 249 248 241 242 241 244 245 246 246 246 249 252 254 254 254 255 257 258 261 263 266 269 271 273 274 273 273 270 266 261 251 255 252 245 244
34 47 60 62 66 53 44 35 32 49 53 40 18 7 327 281 264 256 248 248 234 230 229 236 229 252 259 277 224 282 281 275 244 244 251 232 265 289 281 291 294 287 254 262 235 249 243 250 253 250 250 252 244 241 241 240 244 245 244 242 243 249 253 255 257 257 257 259 260 260 264 267 270 272 274 277 277 278 277 275 274 269 264 253 249
45 22 60 64 74 92 89 77 51 39 21 21 18 4 342 335 333 336 300 251 247 242 250 265 293 285 254 229 236 227 243 256 259 224 231 264 284 279 282 276 279 294 285 248 254 242 238 248 251 254 248 253 246 241 240 241 242 244 245 243 245 246 249 252 255 256 257 258 260 261 262 264 267 270 274 276 278 278 278 280 279 280 278 272 261
350 342 348 7 11 2 15 20 36 42 43 44 37 20 14 9 4 4 348 337 322 297 275 270 267 271 268 249 244 244 252 260 280 295 272 269 276 286 292 302 294 272 288 292 238 248 237 246 247 254 256 253 250 238 244 245 247 246 248 245 245 248 252 254 254 254 253 255 257 260 262 264 266 268 270 274 276 277 278 278 279 281 281 278 278
351 26 353 5 22 12 4 55 76 96 78 48 20 14 12 6 359 354 347 338 332 329 323 310 306 298 291 292 292 294 277 278 287 290 289 290 285 292 291 298 294 300 295 287 291 250 226 255 243 249 251 255 255 243 241 246 249 249 245 249 245 249 253 256 259 261 262 261 259 258 260 265 267 268 269 270 273 274 276 277 280 280 280 282 280
96 68 37 51 52 56 55 43 32 30 24 36 51 47 23 12 6 3 349 337 337 327 311 308 306 296 297 298 292 282 279 275 268 263 271 283 294 293 297 292 280 285 297 297 284 294 256 217 245 241 239 248 251 257 251 247 253 254 249 246 249 248 253 255 257 258 259 259 261 260 261 262 264 266 265 266 269 272 275 277 278 279 281 282 284
103 121 68 73 68 63 59 53 40 41 40 34 6 345 24 89 67 17 356 0 1 360 354 352 345 342 335 326 323 319 312 311 310 297 289 270 269 276 296 312 311 297 286 285 286 256 275 264 228 245 238 246 249 254 250 251 252 255 255 249 251 250 252 254 257 260 259 259 258 258 257 257 259 261 262 262 264 269 272 274 276 277 279 282 285
86 77 55 66 61 54 49 45 43 45 48 45 35 32 19 24 27 39 12 11 357 353 349 349 342 334 326 323 320 312 317 311 300 296 294 292 295 291 283 283 284 296 306 306 298 284 221 257 262 230 240 226 250 240 256 261 267 263 257 252 252 252 251 252 257 260 261 260 260 258 257 254 252 255 257 258 261 263 268 269 273 276 279 282 286
67 62 61 54 53 50 47 37 33 32 35 31 36 35 30 37 33 26 20 5 16 2 351 352 343 337 331 326 318 309 311 323 318 311 308 306 301 302 299 293 296 295 305 306 301 303 307 173 289 264 201 231 234 243 248 251 254 256 256 252 253 252 254 253 257 259 261 262 262 259 258 257 256 254 254 256 257 261 264 267 267 269 271 272 274
72 63 61 52 46 43 49 40 36 39 36 32 32 31 30 32 25 22 2 8 0 339 336 345 332 336 329 328 332 323 320 312 297 292 292 295 300 303 302 296 300 294 289 289 287 289 299 292 180 280 195 239 246 254 238 247 241 246 249 247 249 251 252 254 258 260 263 261 258 261 260 259 258 258 259 258 259 260 262 263 266 268 268 269 270
60 55 54 51 48 45 53 48 44 40 38 39 35 34 37 35 21 14 356 359 358 339 329 340 311 313 310 305 302 293 302 304 301 301 300 298 289 286 279 281 273 265 280 289 296 287 287 292 291 202 290 273 250 263 256 248 256 246 254 252 251 256 257 260 256 255 260 263 263 265 265 259 259 260 259 260 260 261 262 265 268 268 267 268 269
63 64 64 63 58 56 50 54 47 42 42 35 40 40 41 40 27 13 339 8 2 343 326 332 325 324 318 308 303 298 303 299 295 296 295 289 289 288 283 275 264 255 260 264 260 278 288 279 289 292 281 292 287 276 280 265 251 247 250 260 263 263 261 258 255 253 252 256 257 259 264 269 267 265 264 263 261 260 262 263 267 269 269 268 269
68 66 68 63 61 66 62 59 60 51 50 31 26 48 48 24 358 352 343 1 348 322 319 315 316 310 300 297 294 293 298 294 291 291 286 282 281 274 270 274 273 269 271 274 275 280 286 279 270 287 291 293 289 274 274 279 271 265 257 256 259 259 258 255 254 249 247 250 251 251 263 265 265 265 265 264 261 261 262 265 269 269 268 269 269
73 70 67 61 64 62 61 50 52 48 42 36 14 35 19 7 348 343 328 327 318 302 302 295 294 280 275 280 282 281 270 269 274 275 272 278 273 273 264 261 266 262 250 267 273 280 284 295 289 265 279 278 283 281 272 278 282 273 263 260 252 252 254 255 253 251 241 241 245 251 257 258 255 257 258 259 260 262 265 269 269 269 268 267 266
58 69 64 61 58 62 64 57 48 40 27 18 2 15 355 343 317 308 293 287 287 291 297 289 287 285 283 270 277 278 273 270 265 266 266 264 261 259 260 251 255 256 247 238 255 267 276 282 287 292 284 275 260 281 277 266 270 274 276 270 266 259 249 250 254 256 247 241 251 253 257 252 254 254 256 259 261 263 262 262 264 266 265 264 265
60 43 53 57 65 62 57 38 34 22 12 357 346 339 307 292 284 281 284 279 271 272 276 284 289 290 281 289 280 279 282 279 275 274 269 260 259 259 258 252 250 255 249 243 239 255 270 280 286 287 285 287 279 268 273 272 271 270 267 270 263 260 260 251 248 255 250 251 253 255 255 253 254 258 257 259 261 262 263 262 262 263 266 265 265
56 56 44 47 50 45 37 27 11 1 338 323 317 307 290 263 256 270 283 288 288 284 281 281 285 284 284 275 283 288 286 284 284 277 276 273 264 262 262 262 257 257 259 249 248 249 260 267 278 283 286 280 276 280 273 280 278 266 264 262 262 263 259 252 249 250 253 252 253 252 252 253 253 254 259 261 262 262 261 261 263 267 264 265 269
65 59 56 35 43 29 20 359 351 328 314 306 292 285 282 285 277 274 278 282 284 285 287 284 282 279 277 281 282 283 283 277 281 283 279 276 277 269 266 268 266 264 264 261 254 255 255 262 269 283 286 288 287 274 274 254 276 284 279 271 265 258 263 267 252 250 242 239 241 249 251 253 256 255 256 262 262 262 264 267 270 266 262 263 266
69 51 35 36 13 22 346 351 338 319 302 293 290 289 291 292 296 303 303 298 292 290 283 282 282 282 279 281 284 281 277 275 279 283 288 288 281 275 272 272 273 272 268 267 262 258 258 265 267 264 278 280 278 286 285 268 258 262 279 289 284 272 254 248 266 256 226 233 237 241 244 244 247 253 259 260 260 262 265 265 265 263 262 264 267
55 50 35 20 331 351 334 335 311 305 298 299 296 295 297 304 310 307 305 311 312 307 302 297 295 292 288 283 279 278 273 276 276 282 283 284 286 285 278 268 272 276 271 271 269 265 265 265 264 275 273 280 284 276 284 285 279 275 257 260 271 284 285 259 235 260 257 220 234 247 248 252 257 258 257 258 260 260 259 260 258 260 263 265 265
42 33 18 26 7 355 343 326 314 308 306 310 315 333 335 333 338 332 328 323 317 312 307 301 294 291 289 280 276 276 275 275 274 274 275 275 282 288 287 283 275 272 277 277 273 270 269 268 273 270 275 276 275 284 290 283 275 278 284 272 271 273 283 286 277 246 235 245 238 241 246 230 241 247 248 253 253 252 256 255 258 258 259 261 248
33 22 19 13 26 6 346 334 328 332 335 330 329 331 337 333 330 327 319 312 309 303 303 304 303 293 284 288 288 283 282 282 282 281 280 278 273 268 276 286 287 283 279 280 278 275 273 273 272 276 276 275 278 279 281 278 286 287 285 282 281 284 285 281 279 271 219 212 241 245 242 225 225 245 246 244 253 245 243 249 242 242 249 253 227
44 24 41 33 14 3 356 347 343 343 339 333 332 335 335 336 335 327 319 310 302 297 298 303 306 308 303 293 288 292 291 288 284 282 283 284 283 281 278 276 273 274 282 280 278 280 278 271 272 274 272 275 277 279 277 284 283 281 281 282 282 286 282 288 288 286 182 202 219 249 250 223 202 232 242 238 241 240 234 240 238 242 243 237 211
17 31 36 23 9 2 354 350 345 335 330 323 324 327 329 331 332 326 319 313 311 309 306 307 307 308 309 308 304 299 294 294 299 300 296 293 292 289 286 285 283 277 269 268 278 281 278 279 276 271 274 273 279 281 283 286 287 286 280 279 278 278 281 277 273 277 263 186 220 237 255 216 186 221 238 238 236 232 233 234 239 240 238 224 201
28 31 11 13 4 357 1 353 338 327 321 315 316 316 324 327 329 328 317 313 312 311 312 310 308 310 311 312 313 310 309 308 308 305 305 306 303 299 295 292 287 283 281 276 269 267 275 273 276 277 274 281 279 278 280 284 286 286 288 282 279 277 274 273 273 279 278 203 226 243 256 240 195 206 238 235 229 231 230 235 238 239 236 214 192
35 19 10 7 358 0 356 346 328 315 315 311 316 317 322 325 326 333 319 318 311 306 309 310 309 312 312 314 314 313 316 320 315 313 310 308 308 308 308 304 298 293 289 284 280 274 267 268 272 274 277 276 278 281 282 282 283 281 283 282 283 281 278 274 279 275 273 183 227 251 254 251 181 208 234 238 211 220 223 225 233 238 232 200 192
24 4 346 351 346 353 347 340 323 307 302 307 314 317 321 327 335 341 320 316 312 309 309 311 309 310 313 312 310 308 312 316 319 319 317 312 310 310 312 313 310 308 303 300 296 288 282 273 272 274 278 278 278 279 279 276 272 273 272 277 279 279 279 277 271 265 266 212 227 217 256 259 153 214 230 227 192 215 217 218 225 230 210 193 191
11 1 351 13 352 339 326 322 316 306 304 312 319 321 330 339 344 340 329 322 320 317 314 316 312 310 311 312 312 312 312 312 315 318 320 322 321 321 316 313 310 307 303 299 294 287 281 284 284 283 284 282 281 280 280 279 278 277 275 272 274 273 276 278 274 275 270 227 199 212 247 250 191 211 233 157 186 204 203 207 218 216 198 192 187
10 1 350 335 313 311 305 302 303 296 306 314 324 333 343 346 346 341 334 328 322 319 316 317 317 314 312 314 312 312 312 310 317 322 323 324 317 310 305 302 301 298 298 299 290 288 285 279 276 277 281 284 285 288 289 286 282 279 277 277 273 275 276 275 271 271 268 257 194 206 228 249 204 191 186 164 177 203 194 201 213 211 194 189 168
355 342 325 319 306 291 284 288 296 313 313 317 328 341 350 351 352 343 332 328 318 318 316 316 317 315 313 316 319 318 317 315 320 318 317 318 312 307 303 300 300 298 299 304 303 298 290 283 278 277 280 284 285 286 288 290 291 287 282 278 278 281 279 280 282 277 277 266 226 184 196 235 164 149 115 81 28 9 350 298 178 193 185 163 160
319 320 320 308 297 290 271 284 306 323 315 312 327 348 353 353 350 339 335 327 322 321 324 322 323 321 320 323 322 322 318 314 315 315 315 316 310 306 304 300 299 299 301 307 305 302 305 304 295 293 285 276 274 273 276 279 279 277 269 265 265 261 272 276 273 277 274 265 223 164 208 209 134 180 139 120 346 302 15 328 160 143 145 145 155